Time,TemperatureF,DewpointF,PressureIn,WindDirection,WindDirectionDegrees,WindSpeedMPH,WindSpeedGustMPH,Humidity,HourlyPrecipIn,Conditions,Clouds,dailyrainin,SoftwareType,DateUTC
2013-05-23 00:03:00,73.0,66.1,29.83,South,180,5.8,-999.0,79,-99.99,,,0.00,Acu-Link.com,2013-05-23 04:03:00,
2013-05-23 00:18:00,73.0,66.5,29.84,SW,225,4.7,-999.0,80,-99.99,,,0.00,Acu-Link.com,2013-05-23 04:18:00,
2013-05-23 00:33:00,73.0,66.5,29.83,South,180,8.9,-999.0,80,-99.99,,,0.00,Acu-Link.com,2013-05-23 04:33:00,
2013-05-23 00:48:00,73.0,66.8,29.83,SE,135,5.8,-999.0,81,-99.99,,,0.00,Acu-Link.com,2013-05-23 04:48:00,
2013-05-23 01:03:00,72.9,66.7,29.83,South,180,4.7,-999.0,81,-99.99,,,0.00,Acu-Link.com,2013-05-23 05:03:00,
2013-05-23 01:18:00,72.7,66.5,29.82,SW,225,4.2,-999.0,81,-99.99,,,0.00,Acu-Link.com,2013-05-23 05:18:00,
2013-05-23 01:33:00,72.3,66.5,29.82,SSW,202,6.8,-999.0,82,-99.99,,,0.00,Acu-Link.com,2013-05-23 05:33:00,
2013-05-23 01:48:00,72.3,66.8,29.82,SSW,202,7.8,-999.0,83,-99.99,,,0.00,Acu-Link.com,2013-05-23 05:48:00,
2013-05-23 02:03:00,72.1,66.6,29.81,South,180,8.9,-999.0,83,-99.99,,,0.00,Acu-Link.com,2013-05-23 06:03:00,
2013-05-23 02:19:00,72.5,67.0,29.82,SSE,157,6.8,-999.0,83,-99.99,,,0.00,Acu-Link.com,2013-05-23 06:19:00,
2013-05-23 02:34:00,72.5,67.0,29.82,South,180,5.3,-999.0,83,-99.99,,,0.00,Acu-Link.com,2013-05-23 06:34:00,
2013-05-23 02:49:00,72.7,67.2,29.81,SSW,202,6.8,-999.0,83,-99.99,,,0.00,Acu-Link.com,2013-05-23 06:49:00,
2013-05-23 03:04:00,72.5,67.0,29.81,SSW,202,9.4,-999.0,83,-99.99,,,0.00,Acu-Link.com,2013-05-23 07:04:00,
2013-05-23 03:19:00,72.1,66.6,29.81,South,180,5.8,-999.0,83,-99.99,,,0.00,Acu-Link.com,2013-05-23 07:19:00,
2013-05-23 03:34:00,72.3,66.8,29.80,SSW,202,5.3,-999.0,83,-99.99,,,0.00,Acu-Link.com,2013-05-23 07:34:00,
2013-05-23 04:04:00,72.3,66.8,29.81,SSW,202,7.3,-999.0,83,-99.99,,,0.00,Acu-Link.com,2013-05-23 08:04:00,
2013-05-23 04:20:00,72.3,66.8,29.81,South,180,7.8,-999.0,83,-99.99,,,0.00,Acu-Link.com,2013-05-23 08:20:00,
2013-05-23 04:35:00,72.0,66.5,29.81,SSE,157,8.3,-999.0,83,-99.99,,,0.00,Acu-Link.com,2013-05-23 08:35:00,
2013-05-23 04:50:00,71.8,66.3,29.82,South,180,8.3,-999.0,83,-99.99,,,0.00,Acu-Link.com,2013-05-23 08:50:00,
2013-05-23 05:05:00,71.2,66.1,29.82,SSW,202,6.3,-999.0,84,-99.99,,,0.00,Acu-Link.com,2013-05-23 09:05:00,
2013-05-23 05:20:00,70.7,66.0,29.82,South,180,4.2,-999.0,85,-99.99,,,0.00,Acu-Link.com,2013-05-23 09:20:00,
2013-05-23 05:35:00,70.3,65.9,29.83,SW,225,5.3,-999.0,86,-99.99,,,0.00,Acu-Link.com,2013-05-23 09:35:00,
2013-05-23 05:50:00,69.8,65.7,29.84,South,180,5.3,-999.0,87,-99.99,,,0.00,Acu-Link.com,2013-05-23 09:50:00,
2013-05-23 06:06:00,69.8,65.7,29.84,South,180,5.8,-999.0,87,-99.99,,,0.00,Acu-Link.com,2013-05-23 10:06:00,
2013-05-23 06:21:00,70.0,65.9,29.84,SSE,157,4.7,-999.0,87,-99.99,,,0.00,Acu-Link.com,2013-05-23 10:21:00,
2013-05-23 06:36:00,70.3,66.2,29.84,SSE,157,5.8,-999.0,87,-99.99,,,0.00,Acu-Link.com,2013-05-23 10:36:00,
2013-05-23 06:51:00,70.9,66.8,29.84,South,180,4.7,-999.0,87,-99.99,,,0.00,Acu-Link.com,2013-05-23 10:51:00,
2013-05-23 07:06:00,71.4,67.0,29.84,South,180,5.8,-999.0,86,-99.99,,,0.00,Acu-Link.com,2013-05-23 11:06:00,
2013-05-23 07:21:00,71.8,67.4,29.85,WSW,247,4.7,-999.0,86,-99.99,,,0.00,Acu-Link.com,2013-05-23 11:21:00,
2013-05-23 07:36:00,72.1,67.3,29.84,South,180,6.3,-999.0,85,-99.99,,,0.00,Acu-Link.com,2013-05-23 11:36:00,
2013-05-23 07:51:00,73.0,67.9,29.84,South,180,6.8,-999.0,84,-99.99,,,0.00,Acu-Link.com,2013-05-23 11:51:00,
2013-05-23 08:06:00,73.9,68.4,29.84,South,180,6.3,-999.0,83,-99.99,,,0.00,Acu-Link.com,2013-05-23 12:06:00,
2013-05-23 08:22:00,74.7,68.5,29.84,SW,225,10.4,-999.0,81,-99.99,,,0.00,Acu-Link.com,2013-05-23 12:22:00,
2013-05-23 08:37:00,74.8,68.2,29.85,SSW,202,7.8,-999.0,80,-99.99,,,0.00,Acu-Link.com,2013-05-23 12:37:00,
2013-05-23 08:52:00,75.7,69.1,29.84,SSW,202,4.7,-999.0,80,-99.99,,,0.00,Acu-Link.com,2013-05-23 12:52:00,
2013-05-23 09:07:00,76.3,68.5,29.85,SW,225,6.8,-999.0,77,-99.99,,,0.00,Acu-Link.com,2013-05-23 13:07:00,
2013-05-23 09:22:00,78.1,69.1,29.84,South,180,10.4,-999.0,74,-99.99,,,0.00,Acu-Link.com,2013-05-23 13:22:00,
2013-05-23 09:37:00,79.2,69.4,29.84,SSE,157,6.3,-999.0,72,-99.99,,,0.00,Acu-Link.com,2013-05-23 13:37:00,
2013-05-23 09:52:00,77.7,68.7,29.82,South,180,7.8,-999.0,74,-99.99,,,0.00,Acu-Link.com,2013-05-23 13:52:00,
2013-05-23 10:07:00,80.4,70.1,29.83,WSW,247,7.8,-999.0,71,-99.99,,,0.00,Acu-Link.com,2013-05-23 14:07:00,
2013-05-23 10:22:00,80.4,68.8,29.83,SSW,202,10.4,-999.0,68,-99.99,,,0.00,Acu-Link.com,2013-05-23 14:22:00,
2013-05-23 10:38:00,79.9,69.2,29.83,South,180,7.3,-999.0,70,-99.99,,,0.00,Acu-Link.com,2013-05-23 14:38:00,
2013-05-23 10:53:00,81.3,69.7,29.82,South,180,9.9,-999.0,68,-99.99,,,0.00,Acu-Link.com,2013-05-23 14:53:00,
2013-05-23 11:08:00,79.9,68.8,29.81,South,180,7.8,-999.0,69,-99.99,,,0.00,Acu-Link.com,2013-05-23 15:08:00,
2013-05-23 11:23:00,80.2,69.5,29.81,SW,225,4.7,-999.0,70,-99.99,,,0.00,Acu-Link.com,2013-05-23 15:23:00,
2013-05-23 11:38:00,81.3,68.8,29.81,SSE,157,6.8,-999.0,66,-99.99,,,0.00,Acu-Link.com,2013-05-23 15:38:00,
2013-05-23 11:53:00,81.7,69.7,29.81,SSE,157,5.8,-999.0,67,-99.99,,,0.00,Acu-Link.com,2013-05-23 15:53:00,
2013-05-23 12:08:00,81.3,69.3,29.81,SSE,157,6.3,-999.0,67,-99.99,,,0.00,Acu-Link.com,2013-05-23 16:08:00,
2013-05-23 12:23:00,81.1,69.1,29.81,South,180,7.8,-999.0,67,-99.99,,,0.00,Acu-Link.com,2013-05-23 16:23:00,
2013-05-23 12:38:00,81.1,69.1,29.80,SE,135,3.7,-999.0,67,-99.99,,,0.00,Acu-Link.com,2013-05-23 16:38:00,
2013-05-23 12:54:00,81.9,69.8,29.80,South,180,8.3,-999.0,67,-99.99,,,0.00,Acu-Link.com,2013-05-23 16:54:00,
2013-05-23 13:09:00,80.1,68.6,29.80,South,180,6.8,-999.0,68,-99.99,,,0.00,Acu-Link.com,2013-05-23 17:09:00,
2013-05-23 13:24:00,80.1,68.6,29.79,SSW,202,6.8,-999.0,68,-99.99,,,0.00,Acu-Link.com,2013-05-23 17:24:00,
2013-05-23 13:39:00,80.4,69.3,29.80,SSW,202,5.8,-999.0,69,-99.99,,,0.00,Acu-Link.com,2013-05-23 17:39:00,
2013-05-23 13:54:00,79.2,68.1,29.79,South,180,6.3,-999.0,69,-99.99,,,0.00,Acu-Link.com,2013-05-23 17:54:00,
2013-05-23 14:09:00,81.3,69.7,29.78,South,180,6.3,-999.0,68,-99.99,,,0.00,Acu-Link.com,2013-05-23 18:09:00,
2013-05-23 14:25:00,81.0,68.1,29.78,South,180,13.0,-999.0,65,-99.99,,,0.00,Acu-Link.com,2013-05-23 18:25:00,
2013-05-23 14:40:00,80.4,68.4,29.77,SSW,202,7.8,-999.0,67,-99.99,,,0.00,Acu-Link.com,2013-05-23 18:40:00,
2013-05-23 14:55:00,79.0,68.8,29.76,South,180,5.3,-999.0,71,-99.99,,,0.00,Acu-Link.com,2013-05-23 18:55:00,
2013-05-23 15:10:00,76.6,68.5,29.77,SSW,202,8.3,-999.0,76,-99.99,,,0.00,Acu-Link.com,2013-05-23 19:10:00,
2013-05-23 15:25:00,74.7,68.5,29.77,South,180,5.3,-999.0,81,-99.99,,,0.00,Acu-Link.com,2013-05-23 19:25:00,
2013-05-23 15:40:00,73.4,68.3,29.76,South,180,3.2,-999.0,84,-99.99,,,0.00,Acu-Link.com,2013-05-23 19:40:00,
2013-05-23 15:56:00,73.4,68.3,29.77,South,180,6.8,-999.0,84,-99.99,,,0.00,Acu-Link.com,2013-05-23 19:56:00,
2013-05-23 16:11:00,75.9,70.4,29.75,SW,225,4.2,-999.0,83,-99.99,,,0.01,Acu-Link.com,2013-05-23 20:11:00,
2013-05-23 16:26:00,75.6,69.3,29.76,SSW,202,4.7,-999.0,81,-99.99,,,0.01,Acu-Link.com,2013-05-23 20:26:00,
2013-05-23 16:41:00,75.2,68.2,29.75,SSW,202,5.8,-999.0,79,-99.99,,,0.01,Acu-Link.com,2013-05-23 20:41:00,
2013-05-23 16:56:00,76.1,68.7,29.75,SSW,202,5.3,-999.0,78,-99.99,,,0.01,Acu-Link.com,2013-05-23 20:56:00,
2013-05-23 17:11:00,75.7,68.0,29.75,SE,135,4.7,-999.0,77,-99.99,,,0.01,Acu-Link.com,2013-05-23 21:11:00,
2013-05-23 17:26:00,74.8,67.5,29.75,SSE,157,5.3,-999.0,78,-99.99,,,0.01,Acu-Link.com,2013-05-23 21:26:00,
2013-05-23 17:41:00,72.7,67.2,29.75,SSW,202,5.8,-999.0,83,-99.99,,,0.01,Acu-Link.com,2013-05-23 21:41:00,
2013-05-23 17:56:00,71.6,67.5,29.74,SSW,202,5.8,-999.0,87,-99.99,,,0.02,Acu-Link.com,2013-05-23 21:56:00,
2013-05-23 18:12:00,72.1,67.3,29.73,SSW,202,6.3,-999.0,85,-99.99,,,0.02,Acu-Link.com,2013-05-23 22:12:00,
2013-05-23 18:27:00,72.5,67.4,29.72,SW,225,5.8,-999.0,84,-99.99,,,0.02,Acu-Link.com,2013-05-23 22:27:00,
2013-05-23 18:42:00,72.1,66.6,29.72,SSW,202,4.7,-999.0,83,-99.99,,,0.02,Acu-Link.com,2013-05-23 22:42:00,
2013-05-23 18:57:00,71.8,66.7,29.72,SSW,202,6.3,-999.0,84,-99.99,,,0.02,Acu-Link.com,2013-05-23 22:57:00,
2013-05-23 19:12:00,71.6,66.5,29.72,WNW,292,5.3,-999.0,84,-99.99,,,0.02,Acu-Link.com,2013-05-23 23:12:00,
2013-05-23 19:27:00,71.2,66.5,29.72,SSW,202,6.8,-999.0,85,-99.99,,,0.02,Acu-Link.com,2013-05-23 23:27:00,
2013-05-23 19:43:00,70.9,66.5,29.72,SSW,202,6.8,-999.0,86,-99.99,,,0.02,Acu-Link.com,2013-05-23 23:43:00,
2013-05-23 19:58:00,70.7,66.3,29.72,NNW,337,3.7,-999.0,86,-99.99,,,0.02,Acu-Link.com,2013-05-23 23:58:00,
2013-05-23 20:13:00,70.3,66.2,29.71,SSW,202,2.7,-999.0,87,-99.99,,,0.02,Acu-Link.com,2013-05-24 00:13:00,
2013-05-23 20:28:00,70.3,66.2,29.71,South,180,4.2,-999.0,87,-99.99,,,0.02,Acu-Link.com,2013-05-24 00:28:00,
2013-05-23 20:43:00,70.5,66.1,29.70,South,180,7.3,-999.0,86,-99.99,,,0.02,Acu-Link.com,2013-05-24 00:43:00,
2013-05-23 20:58:00,70.5,66.1,29.70,SW,225,5.3,-999.0,86,-99.99,,,0.02,Acu-Link.com,2013-05-24 00:58:00,
2013-05-23 21:13:00,70.5,66.1,29.71,South,180,4.7,-999.0,86,-99.99,,,0.02,Acu-Link.com,2013-05-24 01:13:00,
2013-05-23 21:28:00,70.5,65.8,29.70,South,180,4.2,-999.0,85,-99.99,,,0.02,Acu-Link.com,2013-05-24 01:28:00,
2013-05-23 21:43:00,70.2,65.5,29.70,South,180,4.7,-999.0,85,-99.99,,,0.02,Acu-Link.com,2013-05-24 01:43:00,
2013-05-23 21:58:00,70.0,65.3,29.69,ESE,112,8.3,-999.0,85,-99.99,,,0.02,Acu-Link.com,2013-05-24 01:58:00,
2013-05-23 22:14:00,70.0,65.6,29.69,SSW,202,4.2,-999.0,86,-99.99,,,0.02,Acu-Link.com,2013-05-24 02:14:00,
2013-05-23 22:29:00,69.8,65.4,29.69,South,180,3.7,-999.0,86,-99.99,,,0.02,Acu-Link.com,2013-05-24 02:29:00,
2013-05-23 22:44:00,69.8,65.4,29.69,SE,135,3.7,-999.0,86,-99.99,,,0.02,Acu-Link.com,2013-05-24 02:44:00,
2013-05-23 22:59:00,70.0,65.9,29.68,SSW,202,4.2,-999.0,87,-99.99,,,0.02,Acu-Link.com,2013-05-24 02:59:00,
2013-05-23 23:14:00,69.8,65.7,29.68,South,180,3.2,-999.0,87,-99.99,,,0.02,Acu-Link.com,2013-05-24 03:14:00,
2013-05-23 23:29:00,69.4,65.7,29.68,SSE,157,3.2,-999.0,88,-99.99,,,0.02,Acu-Link.com,2013-05-24 03:29:00,
2013-05-23 23:45:00,69.1,65.4,29.68,SSE,157,1.7,-999.0,88,-99.99,,,0.02,Acu-Link.com,2013-05-24 03:45:00,